ONEWEB-0179 (48212 NORAD) Tracking and Keplerian Element Data

This shows tracking and keplerian element data for the satellite.

Feedback or suggestion? Click here.




ElementValue
Catalog48212
NameONEWEB-0179
Epoch Orbit180
Epoch Day136.75001157
Epoch Year2021
RAAN305.7767
Inclination87.4128
Eccentricity0.000843
Argument of Perigee194.7848
Mean Anonmoly279.2921
Mean Motion15.35158452
Decay Rate-0.01373167
L11 48212U 21031C 21136.75001157 -.01373167 00000-0 -44205-1 0 9999
L22 48212 87.4128 305.7767 0008430 194.7848 279.2921 15.35158452 1800

Live tracking and technical data element details for ONEWEB-0179 (NORAD 48212). ONEWEB-0179 can be tracked NOW for your location showing map with azimuth and elevation plus other details from your city location.

Track the satellite on the map from your city or location and see movement details for azimuth, elevation, latitude, longitude, range, height, and movement on the map or in text.







IsCatalogInMostPopularTable: catalog: 48212, numindb: 8
Update: records affected: 1



GetName: 48212 ONEWEB-0179

Hit Count: updated at: Mon, 17 May 2021 16:02:04 GMT